Location: Maiden
(35.5760°N, 81.2120°W)
Time: 20:23:14
(UTC-04:00)

ISS - Visible Passes

Search period start: 20 August 2014 00:00
Search period end: 30 August 2014 00:00
Orbit: 413 x 419 km, 51.6° (Epoch: 20 August)

Date Brightness Start Highest point End Pass type
(mag) Time Alt. Az. Time Alt. Az. Time Alt. Az.
20 Aug -2.5 21:57:56 10° NW 22:00:42 46° N 22:00:42 46° N visible
21 Aug -2.0 21:09:39 10° NNW 21:12:38 30° NE 21:14:07 21° E visible
21 Aug -0.1 22:46:34 10° WNW 22:47:00 12° W 22:47:00 12° W visible
22 Aug -2.3 21:57:40 10° WNW 22:00:29 41° WSW 22:00:29 41° WSW visible
23 Aug -3.3 21:09:02 10° NW 21:12:22 88° SW 21:14:01 28° SE visible
24 Aug -0.7 21:58:29 10° W 22:00:13 14° SW 22:00:32 13° SW visible
25 Aug -1.4 21:09:01 10° WNW 21:11:49 25° SW 21:14:14 12° S visible
28 Aug -0.5 20:20:36 10° W 20:22:35 15° SW 20:24:33 10° SSW visible
